TimeHST,TemperatureF,Dew PointF,Humidity,Sea Level PressureIn,VisibilityMPH,Wind Direction,Wind SpeedMPH,Gust SpeedMPH,PrecipitationIn,Events,Conditions,WindDirDegrees,DateUTC
12:54 AM,70.0,64.9,84,30.00,10.0,South,3.5,-,N/A,,Clear,180,2013-04-30 10:54:00
1:54 AM,68.0,64.9,90,29.99,10.0,SSE,3.5,-,N/A,,Clear,150,2013-04-30 11:54:00
2:54 AM,69.1,64.9,87,29.99,10.0,SE,4.6,-,N/A,,Clear,140,2013-04-30 12:54:00
3:54 AM,68.0,63.0,84,29.98,10.0,South,3.5,-,N/A,,Clear,180,2013-04-30 13:54:00
4:54 AM,66.0,64.0,93,29.98,10.0,Calm,Calm,-,N/A,,Clear,0,2013-04-30 14:54:00
5:54 AM,66.9,63.0,87,29.99,10.0,SE,4.6,-,N/A,,Clear,140,2013-04-30 15:54:00
6:54 AM,70.0,64.9,84,30.01,10.0,SSE,3.5,-,N/A,,Clear,150,2013-04-30 16:54:00
7:54 AM,79.0,68.0,69,30.01,10.0,Calm,Calm,-,N/A,,Partly Cloudy,0,2013-04-30 17:54:00
8:54 AM,81.0,66.9,62,30.03,10.0,NNE,5.8,-,N/A,,Partly Cloudy,20,2013-04-30 18:54:00
9:54 AM,82.9,70.0,65,30.03,10.0,NNE,10.4,-,N/A,,Partly Cloudy,20,2013-04-30 19:54:00
10:54 AM,86.0,70.0,59,30.02,10.0,NNE,9.2,-,N/A,,Partly Cloudy,30,2013-04-30 20:54:00
11:54 AM,84.9,68.0,57,30.01,10.0,Variable,6.9,17.3,N/A,,Scattered Clouds,0,2013-04-30 21:54:00
12:54 PM,87.1,69.1,55,30.00,10.0,NE,9.2,-,N/A,,Scattered Clouds,40,2013-04-30 22:54:00
1:54 PM,89.1,66.9,48,29.98,10.0,North,12.7,20.7,N/A,,Scattered Clouds,360,2013-04-30 23:54:00
2:54 PM,86.0,69.1,57,29.98,10.0,ESE,5.8,-,N/A,,Scattered Clouds,120,2013-05-01 00:54:00
3:54 PM,87.1,66.0,49,29.97,10.0,NNE,15.0,-,N/A,,Scattered Clouds,30,2013-05-01 01:54:00
4:54 PM,87.1,66.0,49,29.96,10.0,NE,11.5,-,N/A,,Scattered Clouds,50,2013-05-01 02:54:00
5:54 PM,82.0,66.9,60,29.98,10.0,NE,10.4,-,N/A,,Partly Cloudy,50,2013-05-01 03:54:00
6:54 PM,78.1,66.9,68,29.99,10.0,NE,10.4,-,N/A,,Partly Cloudy,50,2013-05-01 04:54:00
7:54 PM,75.0,68.0,79,30.01,10.0,East,8.1,-,N/A,,Partly Cloudy,80,2013-05-01 05:54:00
8:54 PM,73.9,68.0,82,30.03,10.0,East,4.6,-,N/A,,Clear,100,2013-05-01 06:54:00
9:54 PM,75.0,64.0,69,30.05,10.0,ENE,3.5,-,N/A,,Clear,60,2013-05-01 07:54:00
10:54 PM,72.0,66.0,81,30.06,10.0,East,3.5,-,N/A,,Clear,90,2013-05-01 08:54:00
11:54 PM,73.0,66.0,79,30.04,10.0,East,3.5,-,N/A,,Clear,90,2013-05-01 09:54:00